User: anonymous   Login
Location: Oshawa
(43.9000°N, 78.8670°W)
Time: 22:58:22
(UTC-05:00)
Language:

Thor Agena Rocket - Orbit

View from above orbital plane
View from above orbital plane
View from above satellite
View from above satellite

Ground track
Ground track

The orbit data is extracted from the following two-line orbital elements,

1 00733U 64002A   15029.44937175  .00000300  00000-0  12856-3 0  4423
2 00733 099.0291 162.7498 0034317 184.4917 217.5248 14.32012976657826
Epoch (UTC): 29 January 2015 10:47:05
Eccentricity: 0.0034317
inclination: 99.0291°
perigee height: 760 km
apogee height: 809 km
right ascension of ascending node: 162.7498°
argument of perigee: 184.4917°
revolutions per day: 14.32012976
mean anomaly at epoch: 217.5248°
orbit number at epoch: 65782

The dashed part of the orbit path shows where the satellite is in the earth's shadow,  

DLR